sat.trackr.live / text

‹ back to catalog

STARLINK-35190

NORAD 65663 · 2025-211M

PAYLOAD ACTIVE UNKNOWN

§ Identity

Operator
Country
US
Launch date
2025-09-19
Launch site
AFWTR
Launch vehicle
Mass (kg)
RCS (m²)

Purposes: comms

External: N2YO · Heavens-Above · Gunter

§ Orbital elements

Epoch: 2026-05-25T02:55:12.928224Z

Period
95.64 min
Inclination
97.4476°
Eccentricity
0.0002231
Mean motion
15.05655375 rev/d
Perigee alt
547.9 km
Apogee alt
551.0 km
Semi-major
6,927.6 km
B*
1.3765e-4
RAAN
189.0522°
Arg perigee
118.7212°
Mean anomaly
241.4240°
Rev number
3,854

§ Raw data

STARLINK-351901 65663U 25211M   26145.12167741  .00001928  00000+0  13765-3 0  99982 65663  97.4476 189.0522 0002231 118.7212 241.4240 15.05655375 38541

JSON: /api/v1/satellites/65663 · /tle

For live sub-satellite position, see the globe view (requires WebGL).

§ Visibility from observer

Set your observer location to see the next 7 days of passes ≥ 10°. The values pass through the URL so the page stays shareable.

No JS? Fill the form by hand. The geolocation button needs JavaScript.